BTK8182 WARR-WAAA

Flight info

Callsign BTK8182
Flight time 1h 7m
Altitude 35000
Route PEDSO T15 ENDOG
Aircraft A320/M-SDE3FGHIRWY/LB1

Departure

Time 2026-05-01 09:50
Airport Juanda International Airport (WARR)

Arrival

Time 2026-05-01 10:58
Airport Sultan Hasanuddin International Airport (WAAA)
Time Latitude Longitude Altitude Speed Heading
2026-05-01 09:35 -7.37567 112.79347 9 ft 0 kts
2026-05-01 09:41 -7.37568 112.79347 9 ft 1 kts
2026-05-01 09:41 -7.37592 112.79343 10 ft 4 kts 12°
2026-05-01 09:42 -7.37618 112.79336 9 ft 4 kts 20°
2026-05-01 09:42 -7.37642 112.79324 11 ft 4 kts 43°
2026-05-01 09:42 -7.37652 112.79306 9 ft 0 kts 99°
2026-05-01 09:44 -7.37652 112.79309 9 ft 2 kts 99°
2026-05-01 09:45 -7.37655 112.79323 10 ft 2 kts 99°
2026-05-01 09:45 -7.37670 112.79404 9 ft 13 kts 99°
2026-05-01 09:45 -7.37688 112.79513 9 ft 19 kts 99°
2026-05-01 09:46 -7.37712 112.79659 9 ft 22 kts 99°
2026-05-01 09:46 -7.37736 112.79793 10 ft 16 kts 117°
2026-05-01 09:46 -7.37840 112.79800 9 ft 17 kts 188°
2026-05-01 09:46 -7.37943 112.79785 10 ft 14 kts 182°
2026-05-01 09:47 -7.37998 112.79855 9 ft 15 kts 96°
2026-05-01 09:47 -7.38007 112.79937 8 ft 12 kts 97°
2026-05-01 09:47 -7.38028 112.80019 10 ft 13 kts 128°
2026-05-01 09:47 -7.38105 112.80039 8 ft 11 kts 192°
2026-05-01 09:48 -7.38113 112.80037 8 ft 1 kts 193°
2026-05-01 09:48 -7.38121 112.80036 8 ft 2 kts 193°
2026-05-01 09:48 -7.38146 112.80030 7 ft 4 kts 193°
2026-05-01 09:48 -7.38173 112.80025 7 ft 4 kts 184°
2026-05-01 09:49 -7.38198 112.80003 7 ft 8 kts 264°
2026-05-01 09:49 -7.38190 112.79972 7 ft 0 kts 276°
2026-05-01 09:49 -7.38188 112.79955 7 ft 15 kts 276°
2026-05-01 09:50 -7.38128 112.79581 9 ft 91 kts 279°
2026-05-01 09:50 -7.37994 112.78746 10 ft 148 kts 279°
2026-05-01 09:50 -7.37797 112.77573 139 ft 181 kts 279°
2026-05-01 09:50 -7.37568 112.76370 901 ft 171 kts 281°
2026-05-01 09:51 -7.37329 112.75203 1601 ft 170 kts 279°
2026-05-01 09:51 -7.37130 112.73993 2055 ft 185 kts 278°
2026-05-01 09:51 -7.36918 112.72639 2353 ft 207 kts 279°
2026-05-01 09:51 -7.36678 112.71119 2651 ft 232 kts 279°
2026-05-01 09:52 -7.36407 112.69428 3044 ft 256 kts 279°
2026-05-01 09:52 -7.36104 112.67596 3595 ft 272 kts 281°
2026-05-01 09:52 -7.35363 112.65822 4371 ft 281 kts 307°
2026-05-01 09:52 -7.33886 112.64546 5175 ft 285 kts 333°
2026-05-01 09:53 -7.31978 112.64020 5968 ft 288 kts 360°
2026-05-01 09:53 -7.30027 112.64376 6745 ft 287 kts 26°
2026-05-01 09:53 -7.28418 112.65539 7495 ft 286 kts 51°
2026-05-01 09:53 -7.27438 112.67271 8272 ft 286 kts 70°
2026-05-01 09:54 -7.26706 112.69143 9068 ft 288 kts 70°
2026-05-01 09:54 -7.25982 112.71008 9818 ft 291 kts 70°
2026-05-01 09:54 -7.25222 112.72962 10304 ft 305 kts 69°
2026-05-01 09:54 -7.24429 112.74996 10478 ft 328 kts 69°
2026-05-01 09:55 -7.23569 112.77196 10722 ft 345 kts 69°
2026-05-01 09:55 -7.22662 112.79500 11281 ft 351 kts 69°
2026-05-01 09:55 -7.21770 112.81763 11905 ft 355 kts 69°
2026-05-01 09:55 -7.20893 112.84100 12511 ft 358 kts 74°
2026-05-01 09:56 -7.20422 112.86563 13136 ft 360 kts 86°
2026-05-01 09:56 -7.20467 112.89091 13713 ft 363 kts 97°
2026-05-01 09:56 -7.20779 112.91626 14254 ft 366 kts 97°
2026-05-01 09:56 -7.21089 112.94178 14804 ft 369 kts 97°
2026-05-01 09:57 -7.21396 112.96757 15337 ft 372 kts 97°
2026-05-01 09:57 -7.21702 112.99359 15855 ft 375 kts 96°
2026-05-01 09:57 -7.22009 113.01978 16397 ft 378 kts 96°
2026-05-01 09:57 -7.22324 113.04618 16906 ft 381 kts 96°
2026-05-01 09:58 -7.22643 113.07277 17396 ft 385 kts 96°
2026-05-01 09:58 -7.22969 113.10002 17906 ft 388 kts 96°
2026-05-01 09:58 -7.23283 113.12670 18349 ft 391 kts 96°
2026-05-01 09:58 -7.23590 113.15399 18756 ft 394 kts 94°
2026-05-01 09:59 -7.23549 113.18159 19159 ft 396 kts 83°
2026-05-01 09:59 -7.22991 113.20881 19572 ft 398 kts 72°
2026-05-01 09:59 -7.22112 113.23538 19987 ft 401 kts 71°
2026-05-01 09:59 -7.21226 113.26205 20400 ft 403 kts 71°
2026-05-01 10:00 -7.20341 113.28890 20802 ft 405 kts 72°
2026-05-01 10:00 -7.19451 113.31592 21221 ft 408 kts 72°
2026-05-01 10:00 -7.18558 113.34309 21622 ft 410 kts 71°
2026-05-01 10:00 -7.17658 113.37041 22017 ft 412 kts 71°
2026-05-01 10:01 -7.16749 113.39791 22399 ft 415 kts 71°
2026-05-01 10:01 -7.15840 113.42553 22772 ft 417 kts 71°
2026-05-01 10:01 -7.14927 113.45331 23153 ft 419 kts 72°
2026-05-01 10:01 -7.14009 113.48123 23503 ft 421 kts 71°
2026-05-01 10:02 -7.13083 113.50933 23807 ft 424 kts 71°
2026-05-01 10:02 -7.12151 113.53754 24111 ft 426 kts 71°
2026-05-01 10:02 -7.11210 113.56589 24411 ft 428 kts 71°
2026-05-01 10:02 -7.10266 113.59435 24711 ft 430 kts 71°
2026-05-01 10:03 -7.09319 113.62300 25008 ft 432 kts 72°
2026-05-01 10:03 -7.08372 113.65177 25302 ft 434 kts 72°
2026-05-01 10:03 -7.07421 113.68065 25575 ft 436 kts 72°
2026-05-01 10:03 -7.06465 113.70966 25853 ft 438 kts 72°
2026-05-01 10:04 -7.05503 113.73881 26134 ft 440 kts 72°
2026-05-01 10:04 -7.04536 113.76807 26417 ft 441 kts 72°
2026-05-01 10:04 -7.03566 113.79744 26698 ft 443 kts 72°
2026-05-01 10:04 -7.02601 113.82659 26967 ft 445 kts 72°
2026-05-01 10:05 -7.01618 113.85617 27237 ft 447 kts 72°
2026-05-01 10:05 -7.00631 113.88593 27509 ft 449 kts 72°
2026-05-01 10:05 -6.99638 113.91588 27754 ft 451 kts 72°
2026-05-01 10:05 -6.98646 113.94586 28017 ft 453 kts 72°
2026-05-01 10:06 -6.97647 113.97600 28264 ft 455 kts 72°
2026-05-01 10:06 -6.96644 114.00627 28508 ft 456 kts 72°
2026-05-01 10:06 -6.95627 114.03663 28743 ft 458 kts 71°
2026-05-01 10:06 -6.94600 114.06701 28986 ft 460 kts 71°
2026-05-01 10:07 -6.93563 114.09754 29201 ft 462 kts 71°
2026-05-01 10:07 -6.92524 114.12818 29444 ft 463 kts 71°
2026-05-01 10:07 -6.91485 114.15888 29677 ft 465 kts 71°
2026-05-01 10:07 -6.90442 114.18977 29916 ft 466 kts 71°
2026-05-01 10:08 -6.88371 114.25123 30386 ft 466 kts 72°
2026-05-01 10:08 -6.87328 114.28220 30648 ft 466 kts 71°
2026-05-01 10:08 -6.86287 114.31304 30930 ft 465 kts 72°
2026-05-01 10:09 -6.85246 114.34389 31185 ft 465 kts 71°
2026-05-01 10:09 -6.84205 114.37469 31485 ft 464 kts 71°
2026-05-01 10:09 -6.83165 114.40542 31752 ft 464 kts 71°
2026-05-01 10:09 -6.82126 114.43609 32044 ft 463 kts 71°
2026-05-01 10:10 -6.81088 114.46677 32309 ft 463 kts 72°
2026-05-01 10:10 -6.80400 114.48709 32505 ft 462 kts 72°
2026-05-01 10:10 -6.77978 114.55861 33187 ft 461 kts 72°
2026-05-01 10:11 -6.76942 114.58916 33477 ft 461 kts 72°
2026-05-01 10:11 -6.75910 114.61966 33768 ft 460 kts 72°
2026-05-01 10:11 -6.74877 114.65015 34034 ft 460 kts 72°
2026-05-01 10:11 -6.73847 114.68054 34297 ft 459 kts 72°
2026-05-01 10:12 -6.72817 114.71093 34543 ft 458 kts 72°
2026-05-01 10:12 -6.72136 114.73104 34709 ft 458 kts 71°
2026-05-01 10:12 -6.69738 114.80195 34868 ft 459 kts 71°
2026-05-01 10:13 -6.68708 114.83232 34862 ft 458 kts 71°
2026-05-01 10:13 -6.66651 114.89304 34864 ft 458 kts 71°
2026-05-01 10:14 -6.63565 114.98403 34868 ft 458 kts 71°
2026-05-01 10:14 -6.61500 115.04464 34872 ft 458 kts 72°
2026-05-01 10:15 -6.59438 115.10535 34874 ft 458 kts 72°
2026-05-01 10:15 -6.57378 115.16597 34877 ft 458 kts 72°
2026-05-01 10:16 -6.55327 115.22618 34881 ft 458 kts 72°
2026-05-01 10:17 -6.52239 115.31713 34882 ft 458 kts 71°
2026-05-01 10:17 -6.49139 115.40801 34891 ft 458 kts 72°
2026-05-01 10:18 -6.46034 115.49889 34888 ft 458 kts 71°
2026-05-01 10:19 -6.43977 115.55950 34889 ft 458 kts 72°
2026-05-01 10:19 -6.41919 115.62012 34893 ft 458 kts 72°
2026-05-01 10:20 -6.38808 115.71094 34878 ft 458 kts 72°
2026-05-01 10:20 -6.36736 115.77157 34883 ft 459 kts 72°
2026-05-01 10:21 -6.33656 115.86220 34881 ft 459 kts 72°
2026-05-01 10:22 -6.30551 115.95319 34883 ft 459 kts 72°
2026-05-01 10:23 -6.27425 116.04418 34883 ft 459 kts 72°
2026-05-01 10:23 -6.24301 116.13539 34880 ft 460 kts 72°
2026-05-01 10:24 -6.20501 116.24673 34889 ft 460 kts 71°
2026-05-01 10:25 -6.16331 116.36830 34883 ft 460 kts 71°
2026-05-01 10:26 -6.14243 116.42916 34889 ft 460 kts 72°
2026-05-01 10:27 -6.10089 116.55026 34904 ft 459 kts 72°
2026-05-01 10:28 -6.06963 116.64110 34902 ft 459 kts 72°
2026-05-01 10:28 -6.03838 116.73202 34895 ft 459 kts 72°
2026-05-01 10:29 -6.00720 116.82298 34890 ft 459 kts 72°
2026-05-01 10:30 -5.96542 116.94436 34887 ft 460 kts 72°
2026-05-01 10:31 -5.92365 117.06578 34891 ft 460 kts 72°
2026-05-01 10:32 -5.89233 117.15644 34889 ft 460 kts 72°
2026-05-01 10:33 -5.84985 117.27785 34885 ft 461 kts 71°
2026-05-01 10:34 -5.81687 117.36870 34888 ft 461 kts 71°
2026-05-01 10:34 -5.79510 117.42930 34889 ft 461 kts 71°
2026-05-01 10:35 -5.76260 117.52027 34886 ft 462 kts 71°
2026-05-01 10:35 -5.74093 117.58053 34884 ft 462 kts 71°
2026-05-01 10:36 -5.70829 117.67164 34890 ft 461 kts 74°
2026-05-01 10:37 -5.69932 117.73471 34893 ft 457 kts 94°
2026-05-01 10:37 -5.70407 117.83035 34885 ft 458 kts 94°
2026-05-01 10:38 -5.70358 117.86223 34886 ft 458 kts 83°
2026-05-01 10:38 -5.69637 117.89339 34885 ft 459 kts 75°
2026-05-01 10:38 -5.68785 117.92432 34760 ft 460 kts 76°
2026-05-01 10:38 -5.67964 117.95545 34114 ft 464 kts 76°
2026-05-01 10:39 -5.67153 117.98706 33062 ft 471 kts 77°
2026-05-01 10:39 -5.66342 118.01908 32058 ft 475 kts 76°
2026-05-01 10:39 -5.65515 118.05144 30983 ft 481 kts 76°
2026-05-01 10:39 -5.64672 118.08395 30237 ft 479 kts 76°
2026-05-01 10:40 -5.63825 118.11628 29393 ft 478 kts 76°
2026-05-01 10:40 -5.62979 118.14832 28733 ft 471 kts 76°
2026-05-01 10:40 -5.62148 118.17992 28055 ft 465 kts 76°
2026-05-01 10:40 -5.61331 118.21113 27399 ft 459 kts 76°
2026-05-01 10:41 -5.60525 118.24193 26750 ft 454 kts 76°
2026-05-01 10:41 -5.59728 118.27242 26113 ft 449 kts 75°
2026-05-01 10:41 -5.58149 118.33252 24862 ft 441 kts 75°
2026-05-01 10:42 -5.57367 118.36215 24247 ft 437 kts 75°
2026-05-01 10:42 -5.56595 118.39153 23653 ft 434 kts 75°
2026-05-01 10:42 -5.55831 118.42069 23018 ft 430 kts 75°
2026-05-01 10:42 -5.55081 118.44944 22471 ft 423 kts 75°
2026-05-01 10:43 -5.54338 118.47781 21968 ft 416 kts 75°
2026-05-01 10:43 -5.53612 118.50535 21465 ft 411 kts 75°
2026-05-01 10:43 -5.52879 118.53320 20997 ft 404 kts 75°
2026-05-01 10:43 -5.52176 118.55997 20519 ft 399 kts 75°
2026-05-01 10:44 -5.51475 118.58680 20040 ft 395 kts 75°
2026-05-01 10:44 -5.50782 118.61331 19558 ft 391 kts 75°
2026-05-01 10:44 -5.50092 118.63960 19070 ft 388 kts 75°
2026-05-01 10:44 -5.49406 118.66569 18573 ft 386 kts 75°
2026-05-01 10:45 -5.48722 118.69165 18053 ft 384 kts 75°
2026-05-01 10:45 -5.48039 118.71749 17516 ft 382 kts 76°
2026-05-01 10:45 -5.47361 118.74324 17004 ft 379 kts 76°
2026-05-01 10:45 -5.46688 118.76870 16495 ft 376 kts 76°
2026-05-01 10:46 -5.46019 118.79399 15990 ft 374 kts 76°
2026-05-01 10:46 -5.45356 118.81913 15489 ft 372 kts 76°
2026-05-01 10:46 -5.44693 118.84422 14990 ft 370 kts 76°
2026-05-01 10:46 -5.44035 118.86916 14490 ft 369 kts 76°
2026-05-01 10:47 -5.43382 118.89402 13988 ft 368 kts 76°
2026-05-01 10:47 -5.42730 118.91884 13455 ft 367 kts 76°
2026-05-01 10:47 -5.42082 118.94354 12922 ft 365 kts 76°
2026-05-01 10:47 -5.41439 118.96799 12417 ft 361 kts 76°
2026-05-01 10:48 -5.40804 118.99213 11951 ft 357 kts 76°
2026-05-01 10:48 -5.40174 119.01604 11489 ft 352 kts 76°
2026-05-01 10:48 -5.39551 119.03972 10984 ft 350 kts 77°
2026-05-01 10:48 -5.38930 119.06322 10545 ft 345 kts 76°
2026-05-01 10:49 -5.38328 119.08600 10424 ft 331 kts 76°
2026-05-01 10:49 -5.37749 119.10790 10308 ft 318 kts 76°
2026-05-01 10:49 -5.37192 119.12899 10189 ft 307 kts 77°
2026-05-01 10:49 -5.36656 119.14933 10062 ft 297 kts 76°
2026-05-01 10:50 -5.36134 119.16915 9783 ft 293 kts 76°
2026-05-01 10:50 -5.35620 119.18861 9398 ft 292 kts 77°
2026-05-01 10:50 -5.35104 119.20816 9029 ft 289 kts 76°
2026-05-01 10:50 -5.34591 119.22772 8606 ft 289 kts 76°
2026-05-01 10:51 -5.34079 119.24721 8205 ft 288 kts 77°
2026-05-01 10:51 -5.33562 119.26684 7831 ft 286 kts 76°
2026-05-01 10:51 -5.33060 119.28584 7453 ft 285 kts 76°
2026-05-01 10:51 -5.32555 119.30497 7074 ft 283 kts 76°
2026-05-01 10:52 -5.32051 119.32401 6700 ft 281 kts 76°
2026-05-01 10:52 -5.31552 119.34294 6313 ft 280 kts 76°
2026-05-01 10:52 -5.31057 119.36171 5921 ft 278 kts 76°
2026-05-01 10:52 -5.30564 119.38037 5546 ft 275 kts 76°
2026-05-01 10:53 -5.30075 119.39883 5177 ft 273 kts 75°
2026-05-01 10:53 -5.29555 119.41697 4815 ft 270 kts 68°
2026-05-01 10:53 -5.28492 119.43223 4360 ft 271 kts 41°
2026-05-01 10:53 -5.26920 119.44273 3864 ft 270 kts 29°
2026-05-01 10:54 -5.25312 119.45144 3517 ft 256 kts 29°
2026-05-01 10:54 -5.23800 119.45995 3201 ft 243 kts 30°
2026-05-01 10:54 -5.22367 119.46822 2895 ft 232 kts 30°
2026-05-01 10:54 -5.20989 119.47619 2603 ft 226 kts 30°
2026-05-01 10:55 -5.19638 119.48399 2321 ft 224 kts 30°
2026-05-01 10:55 -5.18298 119.49171 2023 ft 219 kts 30°
2026-05-01 10:55 -5.17017 119.49910 1766 ft 205 kts 31°
2026-05-01 10:55 -5.15824 119.50598 1506 ft 190 kts 30°
2026-05-01 10:56 -5.14739 119.51223 1265 ft 170 kts 30°
2026-05-01 10:56 -5.13759 119.51789 1040 ft 155 kts 31°
2026-05-01 10:56 -5.12843 119.52317 856 ft 149 kts 30°
2026-05-01 10:56 -5.11955 119.52830 675 ft 145 kts 30°
2026-05-01 10:57 -5.11086 119.53331 499 ft 143 kts 30°
2026-05-01 10:57 -5.10233 119.53828 296 ft 141 kts 30°
2026-05-01 10:57 -5.09385 119.54315 126 ft 140 kts 30°
2026-05-01 10:57 -5.08569 119.54787 43 ft 124 kts 30°
2026-05-01 10:58 -5.07959 119.55138 40 ft 77 kts 30°
2026-05-01 10:58 -5.07719 119.55271 42 ft 7 kts
2026-05-01 10:58 -5.07704 119.55238 42 ft 5 kts 286°
2026-05-01 10:58 -5.07690 119.55202 41 ft 6 kts 298°
2026-05-01 10:59 -5.07669 119.55167 41 ft 6 kts 301°
2026-05-01 10:59 -5.07637 119.55112 40 ft 10 kts 301°
2026-05-01 10:59 -5.07605 119.55057 41 ft 8 kts 300°
2026-05-01 10:59 -5.07583 119.55007 41 ft 7 kts 281°
2026-05-01 11:00 -5.07588 119.54956 41 ft 7 kts 261°
2026-05-01 11:00 -5.07587 119.54914 41 ft 6 kts 286°
2026-05-01 11:00 -5.07564 119.54874 40 ft 6 kts 302°
2026-05-01 11:00 -5.07558 119.54862 41 ft 0 kts 298°